Battle Creek, MI

10:14 AM EDT on June 18, 2018 (GMT -0400)
Kellogg

Weather History for KBTL - January, 2014

Change the Weather History Date:

Wednesday, January 1, 2014

  Actual Average Record
Temperature  
Mean Temperature 13 °F 24 °F  
Max Temperature 15 °F 32 °F 54 °F (2011)
Min Temperature 11 °F 16 °F 1 °F (2002)
Degree Days  
Heating Degree Days 52 41  
Month to date heating degree days 52 41  
Since 1 July heating degree days 2666 2641  
Cooling Degree Days 0 0  
Month to date cooling degree days 0 0  
Year to date cooling degree days 0 0  
Moisture  
Dew Point 7 °F    
Average Humidity 82    
Maximum Humidity 88    
Minimum Humidity 76    
Precipitation  
Precipitation 0.04 in 0.07 in 0.14 in (2011)
Month to date precipitation 0.04 0.07  
Year to date precipitation 0.04 0.07  
Sea Level Pressure  
Sea Level Pressure 30.29 in    
Wind  
Wind Speed 10 mph (NE)    
Max Wind Speed 16 mph    
Max Gust Speed 20 mph    
Visibility 3 miles    
Events Fog , Snow    
T = Trace of Precipitation, MM = Missing Value Source: NWS Daily Summary

Daily Weather History Graph

Daily Weather History Graph

Search for Another Location

Airport or City:

Astronomy

Jan. 01, 2014 Rise Set
Actual Time 8:10 AM EST 5:19 PM EST
Civil Twilight 7:38 AM EST 5:51 PM EST
Nautical Twilight 7:03 AM EST 6:26 PM EST
Astronomical Twilight 6:28 AM EST 7:00 PM EST
Moon 7:58 AM EST (1/1) 6:05 PM EST (1/1)
Length of Visible Light 10h 12m
Length of Day
9h 09m
New Moon, 0% of the Moon is Illuminated
Jan 1
New Moon
Jan 7
First Quarter
Jan 15
Full
Jan 24
Last Quarter
Jan 30
New

Hourly Weather History & Observations

Time (EST) Temp. Windchill Dew Point Humidity Pressure Visibility Wind Dir Wind Speed Gust Speed Precip Events Conditions
12:23 AM 14.0 °F 3.9 °F 10.0 °F 84% 30.29 in 2.5 mi SW 6.9 mph - 0.00 in Snow Light Snow
12:53 AM 14.0 °F - 10.9 °F 88% 30.34 in 2.5 mi Calm Calm - 0.00 in Snow Light Snow
1:04 AM 15.1 °F - 10.0 °F 80% 30.28 in 4.0 mi Calm Calm - 0.00 in Snow Light Snow
1:53 AM 14.0 °F 5.1 °F 10.0 °F 84% 30.31 in 7.0 mi NNE 5.8 mph - 0.00 in   Overcast
2:53 AM 14.0 °F 2.0 °F 10.0 °F 84% 30.32 in 10.0 mi NNE 9.2 mph - 0.00 in   Overcast
3:34 AM 14.0 °F 1.2 °F 7.0 °F 74% 30.28 in 10.0 mi NE 10.4 mph - N/A   Overcast
3:42 AM 14.0 °F 2.9 °F 7.0 °F 74% 30.28 in 10.0 mi NE 8.1 mph - N/A   Overcast
3:53 AM 14.0 °F 2.0 °F 7.0 °F 74% 30.33 in 9.0 mi NE 9.2 mph - 0.00 in Snow Light Snow
4:53 AM 12.9 °F 1.6 °F 7.0 °F 77% 30.33 in 10.0 mi NE 8.1 mph - 0.00 in   Overcast
5:53 AM 12.9 °F 0.7 °F 7.0 °F 77% 30.34 in 10.0 mi ENE 9.2 mph - 0.00 in Snow Light Snow
6:53 AM 12.9 °F 1.6 °F 7.0 °F 77% 30.35 in 6.0 mi NE 8.1 mph - 0.00 in Snow Light Snow
7:53 AM 12.0 °F 0.5 °F 7.0 °F 80% 30.36 in 4.0 mi NE 8.1 mph - 0.01 in Snow Light Snow
8:10 AM 12.0 °F -0.4 °F 7.0 °F 80% 30.30 in 2.0 mi ENE 9.2 mph - 0.00 in Snow Light Snow
8:18 AM 12.0 °F 1.5 °F 7.0 °F 80% 30.30 in 2.0 mi NE 6.9 mph - 0.00 in Snow Light Snow
8:25 AM 12.0 °F -0.4 °F 7.0 °F 80% 30.30 in 1.2 mi ENE 9.2 mph - 0.00 in Snow Light Snow
8:40 AM 12.0 °F 0.5 °F 7.0 °F 80% 30.30 in 0.8 mi ENE 8.1 mph - 0.00 in Snow Light Snow
8:53 AM 12.0 °F -0.4 °F 7.0 °F 80% 30.37 in 0.8 mi NE 9.2 mph - 0.01 in Snow Light Snow
9:19 AM 12.0 °F -0.4 °F 7.0 °F 80% 30.30 in 1.2 mi NE 9.2 mph - 0.00 in Snow Light Snow
9:53 AM 12.0 °F -0.4 °F 7.0 °F 80% 30.37 in 1.2 mi ENE 9.2 mph - 0.00 in Snow Light Snow
10:53 AM 12.0 °F 0.5 °F 6.1 °F 77% 30.38 in 1.2 mi ENE 8.1 mph - 0.00 in Snow Light Snow
11:15 AM 10.9 °F -2.6 °F 6.1 °F 81% 30.33 in 0.5 mi ENE 10.4 mph - 0.00 in Snow Snow
11:26 AM 10.9 °F -1.8 °F 7.0 °F 84% 30.32 in 0.5 mi ENE 9.2 mph - 0.00 in Fog , Snow Snow
11:53 AM 10.9 °F -3.4 °F 6.1 °F 81% 30.36 in 0.5 mi NE 11.5 mph - 0.00 in Snow Snow
12:02 PM 10.9 °F -4.7 °F 6.1 °F 81% 30.30 in 1.0 mi ENE 13.8 mph - 0.00 in Snow Light Snow
12:24 PM 12.0 °F -2.0 °F 7.0 °F 80% 30.29 in 0.5 mi ENE 11.5 mph - 0.00 in Snow Snow
12:53 PM 10.9 °F -4.1 °F 6.1 °F 81% 30.33 in 0.8 mi ENE 12.7 mph - 0.01 in Snow Light Snow
1:01 PM 10.9 °F -2.6 °F 6.1 °F 81% 30.27 in 1.0 mi ENE 10.4 mph - 0.00 in Snow Light Snow
1:16 PM 10.9 °F -3.4 °F 6.1 °F 81% 30.27 in 0.8 mi ENE 11.5 mph - 0.00 in Snow Light Snow
1:43 PM 12.0 °F -1.3 °F 6.1 °F 77% 30.26 in 1.0 mi ENE 10.4 mph - 0.00 in Snow Light Snow
1:53 PM 12.0 °F -1.3 °F 7.0 °F 80% 30.31 in 1.0 mi ENE 10.4 mph - 0.00 in Snow Light Snow
2:53 PM 12.0 °F -3.4 °F 6.1 °F 77% 30.30 in 1.0 mi NE 13.8 mph - 0.00 in Snow Light Snow
3:53 PM 12.0 °F -1.3 °F 7.0 °F 80% 30.30 in 1.0 mi ENE 10.4 mph - 0.00 in Snow Light Snow
4:46 PM 12.0 °F -2.0 °F 7.0 °F 80% 30.24 in 0.8 mi NE 11.5 mph - 0.01 in Snow Light Snow
4:53 PM 12.0 °F -2.7 °F 6.1 °F 77% 30.30 in 1.0 mi NE 12.7 mph - 0.01 in Snow Light Snow
5:37 PM 12.0 °F -2.7 °F 6.1 °F 77% 30.24 in 1.8 mi NE 12.7 mph - 0.00 in Snow Light Snow
5:45 PM 10.9 °F -3.4 °F 7.0 °F 84% 30.24 in 3.0 mi NE 11.5 mph - 0.00 in Snow Light Snow
5:53 PM 10.9 °F -4.1 °F 6.1 °F 81% 30.30 in 2.0 mi NE 12.7 mph - 0.00 in Snow Light Snow
6:14 PM 10.9 °F -3.4 °F 6.1 °F 81% 30.24 in 1.8 mi NE 11.5 mph - 0.00 in Snow Light Snow
6:33 PM 10.9 °F -2.6 °F 6.1 °F 81% 30.23 in 2.0 mi NE 10.4 mph - 0.00 in Snow Light Snow
6:53 PM 10.9 °F -3.4 °F 6.1 °F 81% 30.30 in 2.0 mi NE 11.5 mph - 0.00 in Snow Light Snow
7:36 PM 10.9 °F -2.6 °F 6.1 °F 81% 30.23 in 3.0 mi ENE 10.4 mph - 0.00 in Snow Light Snow
7:45 PM 10.9 °F -1.8 °F 6.1 °F 81% 30.23 in 2.5 mi NE 9.2 mph - 0.00 in Snow Light Snow
7:53 PM 10.9 °F -3.4 °F 6.1 °F 81% 30.29 in 2.0 mi NE 11.5 mph - 0.00 in Snow Light Snow
8:11 PM 10.9 °F -3.4 °F 6.1 °F 81% 30.23 in 3.0 mi NE 11.5 mph - 0.00 in Snow Light Snow
8:53 PM 10.9 °F -3.4 °F 6.1 °F 81% 30.28 in 4.0 mi NE 11.5 mph - 0.00 in Snow Light Snow
9:53 PM 10.9 °F -3.4 °F 6.1 °F 81% 30.27 in 3.0 mi NE 11.5 mph - 0.00 in Snow Light Snow
10:53 PM 10.9 °F -2.6 °F 6.1 °F 81% 30.26 in 3.0 mi NE 10.4 mph - 0.00 in Snow Light Snow
11:16 PM 10.9 °F -4.1 °F 6.1 °F 81% 30.19 in 1.8 mi NE 12.7 mph - 0.00 in Snow Light Snow
11:53 PM 10.9 °F -3.4 °F 6.1 °F 81% 30.24 in 2.5 mi NE 11.5 mph - 0.00 in Snow Light Snow